Погода в Теологосе

Греция     36°22′27″N   28°02′11″E
темп.,
°C
ветер,
м/с
пор.,
м/с
влажн.,
%
обл.,
%
осадки,
мм/ч
давл.,
гПа
погр.,
м
16 января, вс
вс1623:00+8ссз913500 0.0 1015660
02:00+7с812480 0.0 1016611
05:00+5с813370 0.0 1017652
08:00+5с510410 0.0 1019410
11:00+8с89360 0.0 10211236
14:00+9с79330 0.0 10201647
17:00+7с59430 0.0 1022296
20:00+5с33490 0.0 102363
17 января, пн
пн1723:00+4ссз22480 0.0 102436
02:00+3сз22530 0.0 102427
05:00+3ссз11570 0.0 102423
08:00+4зсз11600 0.0 102522
11:00+10з11420 0.0 1025823
14:00+11зсз22410 0.0 10231124
17:00+7зсз34630 0.0 102383
20:00+5зсз22710 0.0 102333
18 января, вт
вт1823:00+6юз1176100 0.0 102325
02:00+8ю128084 0.1 102151
05:00+9зюз3786100 0.3 1019329
08:00+10сз510835 1.3 1018437
11:00+11ссз69746 0.1 10201010
14:00+12сз711605 0.1 10181523
17:00+10сз711603 0.0 1018647
20:00+8ссз913570 0.0 1020905
19 января, ср
ср1923:00+7ссз813500 0.0 1022833
02:00+6ссз913440 0.0 1022860
05:00+5с1015410 0.0 10231121
08:00+4с1115430 0.0 10251079
11:00+6с912400 0.0 10261092
14:00+7ссз810370 0.0 10261218
17:00+6ссз69460 0.0 1026488
20:00+4ссз59510 0.0 1027254
20 января, чт
чт2023:00+3сз45560 0.0 1028114
02:00+3сз22570 0.0 102843
05:00+3сз22590 0.0 102732
08:00+3зсз226096 0.0 102731
11:00+9зсз45410 0.0 1027817
14:00+10зсз34460 0.0 1026861
17:00+7зсз22691 0.0 102649
20:00+5зюз11802 0.0 102721